Location: Unspecified
(0.0000°N, 0.0000°E)
Time: 05:49:23
(UTC+00:00)

CUTE 1.7 + AOD 2 - Pass Details

Date: 24 May 2026
Orbit: 531 x 545 km, 97.8° (Epoch: 11 June)

Event Time Altitude Azimuth Distance (km) Brightness Sun altitude
Rises 03:31:20 0° 34° (NE) 2,662 ? -33.7°
Reaches altitude 10° 03:33:46 10° 49° (NE) 1,778 ? -33.1°
Enters shadow 03:35:37 19° 75° (ENE) 1,288 ? -32.7°
